Overview Statistics Trail Chart Weather Telemetry Raw packets
 

This is the latest recevied weather packets stored in our database for station/object W5DNT. If no packets are shown the sender has not sent any weather packets the latest 10 day(s).

<< 20 21 22 23 24 25 26 >>
Time Temp. Humidity Pressure Rain* Wind** Luminosity Snow
1788163227 27.78° C 68% 1013.6 hPa 0 mm - - -
1788162319 27.78° C 67% 1013.5 hPa 0 mm - - -
1788161421 28.33° C 67% 1013.5 hPa 0 mm - - -
1788160517 28.33° C 67% 1013.6 hPa 0 mm - - -
1788159617 28.33° C 67% 1013.8 hPa 0 mm - - -
1788158716 28.89° C 66% 1013.7 hPa 0 mm - - -
1788157815 28.89° C 66% 1013.7 hPa 0 mm - - -
1788156913 28.33° C 65% 1013.8 hPa 0 mm - - -
1788156010 28.33° C 64% 1013.7 hPa 0 mm - - -
1788155108 27.78° C 63% 1013.7 hPa 0 mm - - -
1788154208 27.78° C 60% 1013.8 hPa 0 mm - - -
1788153309 28.33° C 59% 1013.7 hPa 0 mm - - -
1788152402 27.78° C 58% 1013.6 hPa 0 mm - - -
1788151503 27.78° C 57% 1013.6 hPa 0 mm - - -
1788150601 27.22° C 54% 1013.5 hPa 0 mm - - -
1788149701 27.78° C 52% 1013.4 hPa 0 mm - - -
1788148860 27.78° C 50% 1013.2 hPa 0 mm - - -
1788147962 28.33° C 49% 1013.1 hPa 0 mm - - -
1788147070 28.89° C 48% 1012.9 hPa 0 mm - - -
1788146158 29.44° C 48% 1012.8 hPa 0 mm - - -
1788145266 30° C 47% 1012.6 hPa 0 mm - - -
1788144359 30.56° C 47% 1012.3 hPa 0 mm - - -
1788143457 30.56° C 47% 1012.1 hPa 0 mm - - -
1788142560 31.11° C 46% 1011.9 hPa 0 mm - - -
1788141661 31.11° C 46% 1011.8 hPa 0 mm - - -

* Rain latest hour (hover to see other rain measurements)
** Current wind speed in m/s (hover to see current wind gust speed)